| time (UTC) | temp F | wind direction | speed MPH | gust MPH | rain 1hr in | rain 24hr in | rain mn in | humidity % | barometer mb |
| 20260507151123 | 50 | 43 | 7.0 | 16.0 | 0.00 | 0.00 | 0.00 | 80 | 1016.8 |
| 20260507150623 | 50 | 72 | 7.0 | 15.0 | 0.00 | 0.00 | 0.00 | 80 | 1016.9 |
| 20260507150122 | 50 | 143 | 8.0 | 15.0 | 0.00 | 0.00 | 0.00 | 80 | 1016.9 |
| 20260507145622 | 50 | 336 | 8.0 | 17.0 | 0.00 | 0.00 | 0.00 | 80 | 1016.9 |
| 20260507145116 | 50 | 323 | 9.0 | 17.0 | 0.00 | 0.00 | 0.00 | 80 | 1017.0 |
| 20260507144615 | 50 | 117 | 8.0 | 14.0 | 0.00 | 0.00 | 0.00 | 78 | 1017.0 |
| 20260507144115 | 50 | 94 | 8.0 | 16.0 | 0.00 | 0.00 | 0.00 | 79 | 1017.0 |
| 20260507143615 | 50 | 145 | 8.0 | 18.0 | 0.00 | 0.00 | 0.00 | 79 | 1017.1 |
| 20260507143115 | 50 | 80 | 8.0 | 18.0 | 0.00 | 0.00 | 0.00 | 80 | 1017.0 |
| 20260507142615 | 50 | 17 | 7.0 | 15.0 | 0.00 | 0.00 | 0.00 | 80 | 1017.0 |
| 20260507142115 | 51 | 207 | 7.0 | 15.0 | 0.00 | 0.00 | 0.00 | 79 | 1017.0 |
| 20260507141615 | 51 | 131 | 7.0 | 15.0 | 0.00 | 0.00 | 0.00 | 79 | 1017.1 |
| 20260507141115 | 51 | 11 | 8.0 | 18.0 | 0.00 | 0.00 | 0.00 | 78 | 1017.1 |
| 20260507140615 | 50 | 122 | 9.0 | 18.0 | 0.00 | 0.00 | 0.00 | 79 | 1017.1 |
| 20260507140115 | 50 | 113 | 8.0 | 16.0 | 0.00 | 0.00 | 0.00 | 81 | 1017.1 |
| 20260507135614 | 50 | 59 | 9.0 | 18.0 | 0.00 | 0.00 | 0.00 | 80 | 1017.1 |
| 20260507135115 | 50 | 171 | 9.0 | 18.0 | 0.00 | 0.00 | 0.00 | 81 | 1017.1 |
| 20260507134616 | 50 | 117 | 8.0 | 14.0 | 0.00 | 0.00 | 0.00 | 80 | 1017.0 |
| 20260507134114 | 50 | 85 | 8.0 | 14.0 | 0.00 | 0.00 | 0.00 | 80 | 1017.1 |
| 20260507133611 | 50 | 79 | 8.0 | 15.0 | 0.00 | 0.00 | 0.00 | 80 | 1017.1 |
| 20260507133110 | 50 | 156 | 8.0 | 15.0 | 0.00 | 0.00 | 0.00 | 79 | 1017.1 |
| 20260507132612 | 50 | 328 | 9.0 | 15.0 | 0.00 | 0.00 | 0.00 | 80 | 1017.2 |
| 20260507132112 | 50 | 33 | 9.0 | 16.0 | 0.00 | 0.00 | 0.00 | 80 | 1017.1 |
| 20260507131611 | 50 | 165 | 10.0 | 17.0 | 0.00 | 0.00 | 0.00 | 81 | 1017.2 |
| 20260507131122 | 50 | 159 | 10.0 | 18.0 | 0.00 | 0.00 | 0.00 | 80 | 1017.1 |
| 20260507130610 | 50 | 46 | 9.0 | 18.0 | 0.00 | 0.00 | 0.00 | 79 | 1017.2 |
| 20260507130113 | 50 | 110 | 8.0 | 15.0 | 0.00 | 0.00 | 0.00 | 79 | 1017.1 |
| 20260507125611 | 50 | 139 | 9.0 | 15.0 | 0.00 | 0.00 | 0.00 | 79 | 1017.2 |
| 20260507125112 | 50 | 120 | 9.0 | 15.0 | 0.00 | 0.00 | 0.00 | 79 | 1017.2 |
| 20260507124612 | 50 | 326 | 10.0 | 17.0 | 0.00 | 0.00 | 0.00 | 79 | 1017.2 |
| 20260507124122 | 50 | 96 | 10.0 | 17.0 | 0.00 | 0.00 | 0.00 | 79 | 1017.2 |
| 20260507123611 | 50 | 85 | 8.0 | 16.0 | 0.00 | 0.00 | 0.00 | 78 | 1017.3 |
| 20260507123111 | 50 | 354 | 8.0 | 20.0 | 0.00 | 0.00 | 0.00 | 79 | 1017.3 |
| 20260507122611 | 50 | 118 | 9.0 | 20.0 | 0.00 | 0.00 | 0.00 | 79 | 1017.4 |
| 20260507122109 | 50 | 153 | 9.0 | 15.0 | 0.00 | 0.00 | 0.00 | 80 | 1017.3 |
| 20260507121600 | 50 | 110 | 8.0 | 15.0 | 0.00 | 0.00 | 0.00 | 78 | 1017.4 |
| 20260507121101 | 50 | 89 | 6.0 | 13.0 | 0.00 | 0.00 | 0.00 | 77 | 1017.4 |
| 20260507120601 | 50 | 305 | 7.0 | 13.0 | 0.00 | 0.00 | 0.00 | 78 | 1017.4 |
| 20260507115601 | 50 | 77 | 8.0 | 15.0 | 0.00 | 0.00 | 0.00 | 78 | 1017.4 |
| 20260507115102 | 50 | 54 | 8.0 | 15.0 | 0.00 | 0.00 | 0.00 | 78 | 1017.4 |
| 20260507114600 | 50 | 69 | 7.0 | 15.0 | 0.00 | 0.00 | 0.00 | 77 | 1017.4 |
| 20260507114101 | 50 | 352 | 7.0 | 14.0 | 0.00 | 0.00 | 0.00 | 77 | 1017.5 |
| 20260507113601 | 49 | 21 | 7.0 | 15.0 | 0.00 | 0.00 | 0.00 | 78 | 1017.5 |
| 20260507113101 | 50 | 249 | 7.0 | 15.0 | 0.00 | 0.00 | 0.00 | 77 | 1017.6 |
| 20260507112600 | 50 | 163 | 7.0 | 15.0 | 0.00 | 0.00 | 0.00 | 78 | 1017.6 |
| 20260507112101 | 50 | 83 | 6.0 | 15.0 | 0.00 | 0.00 | 0.00 | 76 | 1017.6 |
| 20260507111600 | 50 | 41 | 6.0 | 12.0 | 0.00 | 0.00 | 0.00 | 77 | 1017.7 |
| 20260507111100 | 50 | 131 | 7.0 | 12.0 | 0.00 | 0.00 | 0.00 | 76 | 1017.7 |
| 20260507110555 | 50 | 43 | 6.0 | 14.0 | 0.00 | 0.00 | 0.00 | 76 | 1017.8 |
| 20260507110051 | 50 | 130 | 5.0 | 14.0 | 0.00 | 0.00 | 0.00 | 76 | 1017.9 |
| 20260507105550 | 50 | 81 | 5.0 | 11.0 | 0.00 | 0.00 | 0.00 | 76 | 1017.7 |
| 20260507105052 | 49 | 57 | 6.0 | 15.0 | 0.00 | 0.00 | 0.00 | 77 | 1017.8 |
| 20260507104551 | 49 | 127 | 7.0 | 15.0 | 0.00 | 0.00 | 0.00 | 76 | 1017.8 |
| 20260507104050 | 49 | 112 | 6.0 | 12.0 | 0.00 | 0.00 | 0.00 | 76 | 1017.7 |
| 20260507103551 | 49 | 40 | 6.0 | 13.0 | 0.00 | 0.00 | 0.00 | 77 | 1017.8 |
| 20260507103051 | 49 | 109 | 6.0 | 13.0 | 0.00 | 0.00 | 0.00 | 78 | 1017.8 |
| 20260507102550 | 49 | 173 | 6.0 | 13.0 | 0.00 | 0.00 | 0.00 | 76 | 1017.9 |
| 20260507102051 | 49 | 186 | 7.0 | 13.0 | 0.00 | 0.00 | 0.00 | 77 | 1017.9 |
| 20260507101550 | 49 | 57 | 6.0 | 13.0 | 0.00 | 0.00 | 0.00 | 77 | 1017.7 |
| 20260507101051 | 49 | 11 | 6.0 | 12.0 | 0.00 | 0.00 | 0.00 | 76 | 1017.7 |
| 20260507100550 | 49 | 122 | 6.0 | 14.0 | 0.00 | 0.00 | 0.00 | 76 | 1017.7 |
| 20260507100051 | 49 | 93 | 6.0 | 14.0 | 0.00 | 0.00 | 0.00 | 77 | 1017.7 |
| 20260507095550 | 49 | 101 | 6.0 | 11.0 | 0.00 | 0.00 | 0.00 | 76 | 1017.8 |
| 20260507095051 | 49 | 334 | 8.0 | 12.0 | 0.00 | 0.00 | 0.00 | 77 | 1017.8 |
| 20260507094550 | 49 | 77 | 7.0 | 13.0 | 0.00 | 0.00 | 0.00 | 77 | 1017.9 |
| 20260507094051 | 49 | 134 | 6.0 | 13.0 | 0.00 | 0.00 | 0.00 | 77 | 1017.8 |
| 20260507093550 | 49 | 70 | 5.0 | 11.0 | 0.00 | 0.00 | 0.00 | 76 | 1017.8 |
| 20260507093051 | 49 | 16 | 5.0 | 11.0 | 0.00 | 0.00 | 0.00 | 76 | 1017.8 |
| 20260507092551 | 49 | 168 | 6.0 | 11.0 | 0.00 | 0.00 | 0.00 | 76 | 1017.8 |
| 20260507092051 | 49 | 195 | 5.0 | 11.0 | 0.00 | 0.00 | 0.00 | 76 | 1017.7 |
| 20260507091551 | 49 | 169 | 5.0 | 12.0 | 0.00 | 0.00 | 0.00 | 75 | 1017.9 |
| 20260507091050 | 49 | 160 | 4.0 | 12.0 | 0.00 | 0.00 | 0.00 | 75 | 1017.8 |
| 20260507090551 | 49 | 18 | 4.0 | 9.0 | 0.00 | 0.00 | 0.00 | 76 | 1017.8 |
| 20260507090050 | 49 | 109 | 5.0 | 9.0 | 0.00 | 0.00 | 0.00 | 75 | 1017.8 |
| 20260507085550 | 49 | 171 | 4.0 | 9.0 | 0.00 | 0.00 | 0.00 | 75 | 1017.8 |
| 20260507085050 | 49 | 70 | 4.0 | 9.0 | 0.00 | 0.00 | 0.00 | 75 | 1017.8 |
| 20260507084551 | 49 | 113 | 4.0 | 8.0 | 0.00 | 0.00 | 0.00 | 75 | 1017.8 |
| 20260507084051 | 49 | 39 | 4.0 | 8.0 | 0.00 | 0.00 | 0.00 | 75 | 1017.8 |
| 20260507083550 | 49 | 115 | 5.0 | 11.0 | 0.00 | 0.00 | 0.00 | 75 | 1017.8 |
| 20260507083050 | 49 | 123 | 5.0 | 11.0 | 0.00 | 0.00 | 0.00 | 75 | 1017.8 |
| 20260507082551 | 49 | 170 | 3.0 | 8.0 | 0.00 | 0.00 | 0.00 | 75 | 1017.8 |
| 20260507082050 | 49 | 94 | 3.0 | 8.0 | 0.00 | 0.00 | 0.00 | 74 | 1017.7 |
| 20260507081550 | 49 | 106 | 3.0 | 8.0 | 0.00 | 0.00 | 0.00 | 75 | 1017.8 |
| 20260507081050 | 49 | 107 | 3.0 | 8.0 | 0.00 | 0.00 | 0.00 | 75 | 1017.8 |
| 20260507080551 | 49 | 78 | 4.0 | 8.0 | 0.00 | 0.00 | 0.00 | 74 | 1017.7 |
| 20260507080051 | 49 | 335 | 4.0 | 8.0 | 0.00 | 0.00 | 0.00 | 74 | 1017.7 |
| 20260507075548 | 48 | 34 | 5.0 | 8.0 | 0.00 | 0.00 | 0.00 | 75 | 1017.7 |
| 20260507075048 | 48 | 122 | 4.0 | 11.0 | 0.00 | 0.00 | 0.00 | 75 | 1017.7 |
| 20260507074543 | 48 | 136 | 4.0 | 11.0 | 0.00 | 0.00 | 0.00 | 75 | 1017.7 |
| 20260507074042 | 49 | 205 | 3.0 | 7.0 | 0.00 | 0.00 | 0.00 | 75 | 1017.7 |
| 20260507073542 | 49 | 13 | 3.0 | 7.0 | 0.00 | 0.00 | 0.00 | 75 | 1017.6 |
| 20260507073043 | 48 | 174 | 3.0 | 8.0 | 0.00 | 0.00 | 0.00 | 75 | 1017.6 |
| 20260507072542 | 48 | 57 | 4.0 | 9.0 | 0.00 | 0.00 | 0.00 | 75 | 1017.6 |
| 20260507072042 | 48 | 150 | 4.0 | 9.0 | 0.00 | 0.00 | 0.00 | 75 | 1017.5 |
| 20260507071542 | 48 | 21 | 4.0 | 8.0 | 0.00 | 0.00 | 0.00 | 74 | 1017.5 |
| 20260507071042 | 48 | 124 | 4.0 | 8.0 | 0.00 | 0.00 | 0.00 | 75 | 1017.5 |
| 20260507070543 | 49 | 148 | 3.0 | 8.0 | 0.00 | 0.00 | 0.00 | 76 | 1017.5 |
| 20260507070042 | 48 | 49 | 3.0 | 8.0 | 0.00 | 0.00 | 0.00 | 75 | 1017.4 |
| 20260507065541 | 48 | 126 | 4.0 | 8.0 | 0.00 | 0.00 | 0.00 | 75 | 1017.5 |
| 20260507065040 | 48 | 98 | 4.0 | 8.0 | 0.00 | 0.00 | 0.00 | 75 | 1017.4 |
| 20260507064540 | 48 | 75 | 4.0 | 8.0 | 0.00 | 0.00 | 0.00 | 74 | 1017.4 |
| 20260507064038 | 48 | 136 | 4.0 | 8.0 | 0.00 | 0.00 | 0.00 | 75 | 1017.3 |
| 20260507063536 | 48 | 2 | 4.0 | 7.0 | 0.00 | 0.00 | 0.00 | 75 | 1017.3 |
| 20260507063030 | 48 | 92 | 4.0 | 7.0 | 0.00 | 0.00 | 0.00 | 75 | 1017.3 |
| 20260507062528 | 48 | 110 | 2.0 | 7.0 | 0.00 | 0.00 | 0.00 | 75 | 1017.2 |
| 20260507062029 | 48 | 103 | 1.0 | 6.0 | 0.00 | 0.00 | 0.00 | 75 | 1017.2 |
| 20260507061529 | 47 | 177 | 0.0 | 1.0 | 0.00 | 0.00 | 0.00 | 74 | 1017.3 |
| 20260507061029 | 47 | 143 | 0.0 | 1.0 | 0.00 | 0.00 | 0.00 | 74 | 1017.2 |
| 20260507060526 | 47 | 144 | 0.0 | 2.0 | 0.00 | 0.00 | 0.00 | 78 | 1017.3 |
| 20260507060026 | 45 | 156 | 0.0 | 2.0 | 0.00 | 0.00 | 0.00 | 81 | 1017.1 |
| 20260507055526 | 43 | 44 | 0.0 | 0.0 | 0.00 | 0.00 | 0.00 | 78 | 1017.1 |
| 20260507055024 | 43 | 45 | 0.0 | 1.0 | 0.00 | 0.00 | 0.00 | 79 | 1017.1 |
| 20260507054524 | 42 | 339 | 0.0 | 1.0 | 0.00 | 0.00 | 0.00 | 82 | 1017.1 |
| 20260507054024 | 40 | 339 | 0.0 | 2.0 | 0.00 | 0.00 | 0.00 | 82 | 1017.1 |
| 20260507053522 | 40 | 351 | 0.0 | 2.0 | 0.00 | 0.00 | 0.00 | 83 | 1017.1 |
| 20260507053022 | 39 | 347 | 1.0 | 2.0 | 0.00 | 0.00 | 0.00 | 82 | 1017.1 |
| 20260507052522 | 39 | 312 | 1.0 | 2.0 | 0.00 | 0.00 | 0.00 | 83 | 1017.1 |
| 20260507052022 | 39 | 9 | 1.0 | 2.0 | 0.00 | 0.00 | 0.00 | 83 | 1017.2 |
| 20260507051522 | 38 | 356 | 1.0 | 2.0 | 0.00 | 0.00 | 0.00 | 84 | 1017.1 |
| 20260507051022 | 38 | 344 | 1.0 | 3.0 | 0.00 | 0.00 | 0.00 | 84 | 1017.1 |
| 20260507050520 | 38 | 338 | 1.0 | 3.0 | 0.00 | 0.00 | 0.00 | 84 | 1017.1 |
| 20260507050018 | 37 | 343 | 1.0 | 3.0 | 0.00 | 0.00 | 0.00 | 85 | 1017.1 |
| 20260507045518 | 37 | 327 | 1.0 | 3.0 | 0.00 | 0.00 | 0.00 | 85 | 1017.0 |
| 20260507045018 | 37 | 330 | 1.0 | 2.0 | 0.00 | 0.00 | 0.00 | 85 | 1017.0 |
| 20260507044517 | 37 | 326 | 1.0 | 2.0 | 0.00 | 0.00 | 0.00 | 86 | 1017.0 |
| 20260507044018 | 37 | 342 | 1.0 | 2.0 | 0.00 | 0.00 | 0.00 | 86 | 1017.1 |
| 20260507043518 | 36 | 344 | 1.0 | 2.0 | 0.00 | 0.00 | 0.00 | 86 | 1017.1 |
| 20260507043017 | 36 | 319 | 1.0 | 2.0 | 0.00 | 0.00 | 0.00 | 86 | 1017.1 |
| 20260507042517 | 36 | 326 | 1.0 | 2.0 | 0.00 | 0.00 | 0.00 | 86 | 1017.0 |
| 20260507042019 | 36 | 328 | 1.0 | 2.0 | 0.00 | 0.00 | 0.00 | 86 | 1017.1 |
| 20260507041517 | 36 | 326 | 1.0 | 3.0 | 0.00 | 0.00 | 0.00 | 86 | 1017.1 |
| 20260507041019 | 36 | 345 | 2.0 | 4.0 | 0.00 | 0.00 | 0.00 | 86 | 1017.1 |
| 20260507040518 | 36 | 0 | 2.0 | 4.0 | 0.00 | 0.00 | 0.00 | 86 | 1017.1 |
| 20260507040017 | 36 | 340 | 3.0 | 5.0 | 0.00 | 0.00 | 0.00 | 86 | 1017.1 |
| 20260507035511 | 36 | 339 | 3.0 | 5.0 | 0.00 | 0.00 | 0.00 | 87 | 1017.2 |
| 20260507035006 | 36 | 348 | 3.0 | 5.0 | 0.00 | 0.00 | 0.00 | 86 | 1017.2 |
| 20260507034506 | 36 | 341 | 3.0 | 5.0 | 0.00 | 0.00 | 0.00 | 86 | 1017.3 |
| 20260507034006 | 36 | 340 | 3.0 | 5.0 | 0.00 | 0.00 | 0.00 | 86 | 1017.3 |
| 20260507033505 | 36 | 358 | 3.0 | 5.0 | 0.00 | 0.00 | 0.00 | 86 | 1017.4 |
| 20260507033006 | 36 | 316 | 3.0 | 5.0 | 0.00 | 0.00 | 0.00 | 86 | 1017.3 |
| 20260507032506 | 36 | 316 | 3.0 | 5.0 | 0.00 | 0.00 | 0.00 | 86 | 1017.2 |
| 20260507032007 | 36 | 329 | 3.0 | 5.0 | 0.00 | 0.00 | 0.00 | 86 | 1017.3 |
| 20260507031505 | 37 | 340 | 3.0 | 5.0 | 0.00 | 0.00 | 0.00 | 86 | 1017.2 |
| 20260507031006 | 37 | 350 | 3.0 | 5.0 | 0.00 | 0.00 | 0.00 | 86 | 1017.2 |
| 20260507030506 | 37 | 4 | 3.0 | 5.0 | 0.00 | 0.00 | 0.00 | 86 | 1017.3 |
| 20260507030006 | 37 | 354 | 3.0 | 6.0 | 0.00 | 0.00 | 0.00 | 86 | 1017.3 |
| 20260507025506 | 37 | 352 | 3.0 | 6.0 | 0.00 | 0.00 | 0.00 | 86 | 1017.3 |
| 20260507025006 | 37 | 41 | 3.0 | 5.0 | 0.00 | 0.00 | 0.00 | 85 | 1017.2 |
| 20260507024505 | 37 | 27 | 2.0 | 5.0 | 0.00 | 0.00 | 0.00 | 85 | 1017.2 |
| 20260507024001 | 37 | 336 | 3.0 | 5.0 | 0.00 | 0.00 | 0.00 | 86 | 1017.2 |
| 20260507023501 | 37 | 320 | 3.0 | 5.0 | 0.00 | 0.00 | 0.00 | 86 | 1017.2 |
| 20260507023001 | 37 | 353 | 3.0 | 6.0 | 0.00 | 0.00 | 0.00 | 86 | 1017.2 |
| 20260507022501 | 37 | 328 | 3.0 | 6.0 | 0.00 | 0.00 | 0.00 | 85 | 1017.2 |
| 20260507022002 | 37 | 310 | 3.0 | 6.0 | 0.00 | 0.00 | 0.00 | 84 | 1017.1 |
| 20260507021504 | 38 | 312 | 2.0 | 5.0 | 0.00 | 0.00 | 0.00 | 83 | 1017.1 |
| 20260507021002 | 38 | 354 | 2.0 | 4.0 | 0.00 | 0.00 | 0.00 | 84 | 1017.1 |
| 20260507020501 | 38 | 358 | 2.0 | 4.0 | 0.00 | 0.00 | 0.00 | 84 | 1017.1 |
| 20260507020000 | 38 | 3 | 2.0 | 4.0 | 0.00 | 0.00 | 0.00 | 85 | 1017.1 |
| 20260507015459 | 38 | 11 | 2.0 | 4.0 | 0.00 | 0.00 | 0.00 | 85 | 1017.1 |
| 20260507015000 | 37 | 326 | 3.0 | 5.0 | 0.00 | 0.00 | 0.00 | 85 | 1017.2 |
| 20260507014500 | 37 | 336 | 3.0 | 5.0 | 0.00 | 0.00 | 0.00 | 85 | 1017.2 |
| 20260507014000 | 38 | 14 | 3.0 | 5.0 | 0.00 | 0.00 | 0.00 | 85 | 1017.2 |
| 20260507013500 | 38 | 1 | 3.0 | 5.0 | 0.00 | 0.00 | 0.00 | 85 | 1017.3 |
| 20260507012959 | 38 | 333 | 3.0 | 5.0 | 0.00 | 0.00 | 0.00 | 84 | 1017.2 |
| 20260507012500 | 38 | 323 | 2.0 | 5.0 | 0.00 | 0.00 | 0.00 | 84 | 1017.2 |
| 20260507012001 | 38 | 17 | 2.0 | 4.0 | 0.00 | 0.00 | 0.00 | 84 | 1017.2 |
| 20260507011500 | 38 | 321 | 2.0 | 4.0 | 0.00 | 0.00 | 0.00 | 83 | 1017.2 |
| 20260507011000 | 39 | 316 | 1.0 | 3.0 | 0.00 | 0.00 | 0.00 | 83 | 1017.2 |
| 20260507010459 | 39 | 333 | 2.0 | 4.0 | 0.00 | 0.00 | 0.00 | 83 | 1017.2 |
| 20260507010000 | 39 | 4 | 2.0 | 4.0 | 0.00 | 0.00 | 0.00 | 83 | 1017.2 |
| 20260507005500 | 39 | 358 | 2.0 | 4.0 | 0.00 | 0.00 | 0.00 | 82 | 1017.2 |
| 20260507004959 | 39 | 356 | 1.0 | 4.0 | 0.00 | 0.00 | 0.00 | 82 | 1017.2 |
| 20260507004459 | 40 | 352 | 0.0 | 3.0 | 0.00 | 0.00 | 0.00 | 82 | 1017.1 |
| 20260507004000 | 40 | 3 | 1.0 | 2.0 | 0.00 | 0.00 | 0.00 | 82 | 1017.1 |
| 20260507003500 | 39 | 306 | 1.0 | 4.0 | 0.00 | 0.00 | 0.00 | 82 | 1017.2 |
| 20260507003000 | 40 | 303 | 2.0 | 6.0 | 0.00 | 0.00 | 0.00 | 81 | 1017.1 |
| 20260507002500 | 40 | 4 | 2.0 | 6.0 | 0.00 | 0.00 | 0.00 | 81 | 1017.2 |
| 20260507001959 | 40 | 5 | 2.0 | 4.0 | 0.00 | 0.00 | 0.00 | 80 | 1017.2 |
| 20260507001500 | 41 | 337 | 1.0 | 3.0 | 0.00 | 0.00 | 0.00 | 79 | 1017.1 |
| 20260507001000 | 42 | 354 | 0.0 | 2.0 | 0.00 | 0.00 | 0.00 | 78 | 1017.3 |
| 20260507000459 | 43 | 316 | 0.0 | 2.0 | 0.00 | 0.00 | 0.00 | 77 | 1017.3 |
| 20260507000000 | 43 | 72 | 1.0 | 4.0 | 0.00 | 0.00 | 0.00 | 76 | 1017.3 |
| 20260506235457 | 44 | 91 | 1.0 | 4.0 | 0.00 | 0.00 | 0.00 | 76 | 1017.3 |
| 20260506234957 | 44 | 291 | 1.0 | 4.0 | 0.00 | 0.00 | 0.00 | 75 | 1017.3 |
| 20260506234457 | 45 | 34 | 2.0 | 5.0 | 0.00 | 0.00 | 0.00 | 73 | 1017.3 |
| 20260506233957 | 46 | 143 | 2.0 | 5.0 | 0.00 | 0.00 | 0.00 | 74 | 1017.4 |
| 20260506233457 | 46 | 108 | 3.0 | 6.0 | 0.00 | 0.00 | 0.00 | 73 | 1017.4 |
| 20260506232956 | 46 | 94 | 4.0 | 6.0 | 0.00 | 0.00 | 0.00 | 73 | 1017.4 |
| 20260506232451 | 46 | 68 | 4.0 | 7.0 | 0.00 | 0.00 | 0.00 | 74 | 1017.4 |
| 20260506231947 | 46 | 83 | 4.0 | 8.0 | 0.00 | 0.00 | 0.00 | 73 | 1017.4 |
| 20260506231448 | 46 | 84 | 4.0 | 8.0 | 0.00 | 0.00 | 0.00 | 74 | 1017.3 |
| 20260506230948 | 46 | 94 | 4.0 | 8.0 | 0.00 | 0.00 | 0.00 | 73 | 1017.4 |
| 20260506230457 | 46 | 105 | 5.0 | 8.0 | 0.00 | 0.00 | 0.00 | 74 | 1017.2 |
| 20260506225946 | 46 | 57 | 5.0 | 9.0 | 0.00 | 0.00 | 0.00 | 74 | 1017.3 |
| 20260506225447 | 46 | 129 | 5.0 | 9.0 | 0.00 | 0.00 | 0.00 | 73 | 1017.2 |
| 20260506224947 | 46 | 91 | 4.0 | 8.0 | 0.00 | 0.00 | 0.00 | 73 | 1017.3 |
| 20260506224447 | 46 | 82 | 6.0 | 9.0 | 0.00 | 0.00 | 0.00 | 73 | 1017.3 |
| 20260506223946 | 46 | 81 | 6.0 | 9.0 | 0.00 | 0.00 | 0.00 | 73 | 1017.3 |
| 20260506223446 | 46 | 100 | 6.0 | 9.0 | 0.00 | 0.00 | 0.00 | 74 | 1017.4 |
| 20260506222940 | 46 | 86 | 6.0 | 10.0 | 0.00 | 0.00 | 0.00 | 73 | 1017.3 |
| 20260506222440 | 46 | 44 | 6.0 | 10.0 | 0.00 | 0.00 | 0.00 | 74 | 1017.3 |
| 20260506221940 | 46 | 110 | 6.0 | 10.0 | 0.00 | 0.00 | 0.00 | 74 | 1017.2 |
| 20260506221441 | 46 | 111 | 6.0 | 9.0 | 0.00 | 0.00 | 0.00 | 73 | 1017.3 |
| 20260506220940 | 46 | 72 | 5.0 | 9.0 | 0.00 | 0.00 | 0.00 | 73 | 1017.2 |
| 20260506220441 | 46 | 102 | 5.0 | 9.0 | 0.00 | 0.00 | 0.00 | 74 | 1017.2 |
| 20260506215940 | 46 | 112 | 5.0 | 10.0 | 0.00 | 0.00 | 0.00 | 73 | 1017.2 |
| 20260506215441 | 46 | 74 | 5.0 | 10.0 | 0.00 | 0.00 | 0.00 | 73 | 1017.3 |
| 20260506214941 | 46 | 77 | 4.0 | 9.0 | 0.00 | 0.00 | 0.00 | 73 | 1017.3 |
| 20260506214438 | 46 | 94 | 4.0 | 9.0 | 0.00 | 0.00 | 0.00 | 74 | 1017.4 |
| 20260506213939 | 46 | 6 | 5.0 | 9.0 | 0.00 | 0.00 | 0.00 | 74 | 1017.3 |
| 20260506213438 | 46 | 67 | 5.0 | 9.0 | 0.00 | 0.00 | 0.00 | 75 | 1017.2 |
| 20260506212936 | 46 | 82 | 5.0 | 9.0 | 0.00 | 0.00 | 0.00 | 74 | 1017.1 |
| 20260506212437 | 46 | 86 | 4.0 | 9.0 | 0.00 | 0.00 | 0.00 | 74 | 1017.2 |
| 20260506211936 | 46 | 61 | 5.0 | 9.0 | 0.00 | 0.00 | 0.00 | 74 | 1017.2 |
| 20260506211436 | 46 | 96 | 6.0 | 9.0 | 0.00 | 0.00 | 0.00 | 74 | 1017.2 |
| 20260506210936 | 46 | 96 | 6.0 | 9.0 | 0.00 | 0.00 | 0.00 | 73 | 1017.2 |
| 20260506210434 | 46 | 53 | 6.0 | 10.0 | 0.00 | 0.00 | 0.00 | 73 | 1017.2 |
| 20260506205934 | 46 | 89 | 6.0 | 10.0 | 0.00 | 0.00 | 0.00 | 73 | 1017.2 |
| 20260506205435 | 46 | 70 | 5.0 | 10.0 | 0.00 | 0.00 | 0.00 | 74 | 1017.2 |
| 20260506204934 | 46 | 77 | 4.0 | 10.0 | 0.00 | 0.00 | 0.00 | 75 | 1017.2 |
| 20260506204434 | 46 | 63 | 4.0 | 10.0 | 0.00 | 0.00 | 0.00 | 74 | 1017.2 |
| 20260506203934 | 46 | 68 | 3.0 | 8.0 | 0.00 | 0.00 | 0.00 | 73 | 1017.2 |
| 20260506203434 | 46 | 37 | 2.0 | 7.0 | 0.00 | 0.00 | 0.00 | 74 | 1017.4 |
| 20260506202927 | 46 | 42 | 2.0 | 7.0 | 0.00 | 0.00 | 0.00 | 73 | 1017.4 |
| 20260506202421 | 46 | 77 | 3.0 | 8.0 | 0.00 | 0.00 | 0.00 | 73 | 1017.3 |
| 20260506201917 | 46 | 84 | 3.0 | 8.0 | 0.00 | 0.00 | 0.00 | 74 | 1017.3 |
| 20260506201418 | 46 | 88 | 3.0 | 7.0 | 0.00 | 0.00 | 0.00 | 74 | 1017.2 |
| 20260506200918 | 46 | 26 | 3.0 | 7.0 | 0.00 | 0.00 | 0.00 | 73 | 1017.3 |
| 20260506200416 | 46 | 30 | 3.0 | 7.0 | 0.00 | 0.00 | 0.00 | 73 | 1017.2 |
| 20260506195916 | 46 | 56 | 4.0 | 8.0 | 0.00 | 0.00 | 0.00 | 73 | 1017.2 |
| 20260506195416 | 46 | 56 | 4.0 | 9.0 | 0.00 | 0.00 | 0.00 | 73 | 1017.2 |
| 20260506194916 | 46 | 73 | 4.0 | 9.0 | 0.00 | 0.00 | 0.00 | 73 | 1017.2 |
| 20260506194416 | 46 | 99 | 3.0 | 9.0 | 0.00 | 0.00 | 0.00 | 73 | 1017.1 |
| 20260506193915 | 46 | 50 | 3.0 | 9.0 | 0.00 | 0.00 | 0.00 | 73 | 1017.1 |
| 20260506193416 | 46 | 82 | 3.0 | 9.0 | 0.00 | 0.00 | 0.00 | 73 | 1017.0 |
| 20260506192916 | 46 | 42 | 3.0 | 8.0 | 0.00 | 0.00 | 0.00 | 72 | 1016.9 |
| 20260506192416 | 47 | 16 | 4.0 | 9.0 | 0.00 | 0.00 | 0.00 | 73 | 1016.9 |
| 20260506191916 | 47 | 67 | 4.0 | 9.0 | 0.00 | 0.00 | 0.00 | 74 | 1017.0 |
| 20260506191417 | 47 | 27 | 4.0 | 10.0 | 0.00 | 0.00 | 0.00 | 73 | 1017.0 |
| 20260506190410 | 48 | 72 | 2.0 | 8.0 | 0.00 | 0.00 | 0.00 | 73 | 1017.0 |
| 20260506185910 | 48 | 349 | 2.0 | 8.0 | 0.00 | 0.00 | 0.00 | 72 | 1016.9 |
| 20260506185410 | 48 | 89 | 3.0 | 8.0 | 0.00 | 0.00 | 0.00 | 72 | 1016.9 |
| 20260506184910 | 48 | 77 | 3.0 | 8.0 | 0.00 | 0.00 | 0.00 | 72 | 1016.9 |
| 20260506184410 | 48 | 13 | 3.0 | 8.0 | 0.00 | 0.00 | 0.00 | 72 | 1016.8 |
| 20260506183910 | 48 | 250 | 3.0 | 8.0 | 0.00 | 0.00 | 0.00 | 71 | 1016.8 |
| 20260506183410 | 48 | 49 | 3.0 | 8.0 | 0.00 | 0.00 | 0.00 | 72 | 1016.8 |
| 20260506182910 | 48 | 3 | 3.0 | 8.0 | 0.00 | 0.00 | 0.00 | 71 | 1016.9 |
| 20260506182410 | 48 | 1 | 3.0 | 8.0 | 0.00 | 0.00 | 0.00 | 72 | 1016.9 |
| 20260506181909 | 48 | 55 | 2.0 | 6.0 | 0.00 | 0.00 | 0.00 | 70 | 1016.9 |
| 20260506181410 | 48 | 86 | 2.0 | 6.0 | 0.00 | 0.00 | 0.00 | 70 | 1016.9 |
| 20260506180910 | 48 | 118 | 3.0 | 8.0 | 0.00 | 0.00 | 0.00 | 70 | 1016.9 |
| 20260506180409 | 48 | 254 | 3.0 | 8.0 | 0.00 | 0.00 | 0.00 | 71 | 1016.9 |
| 20260506175910 | 48 | 24 | 2.0 | 7.0 | 0.00 | 0.00 | 0.00 | 69 | 1016.9 |
| 20260506175409 | 49 | 231 | 2.0 | 6.0 | 0.00 | 0.00 | 0.00 | 68 | 1016.9 |
| 20260506174904 | 49 | 133 | 2.0 | 9.0 | 0.00 | 0.00 | 0.00 | 71 | 1016.8 |
| 20260506174403 | 49 | 61 | 3.0 | 10.0 | 0.00 | 0.00 | 0.00 | 70 | 1016.7 |
| 20260506173904 | 49 | 12 | 3.0 | 10.0 | 0.00 | 0.00 | 0.00 | 69 | 1016.7 |
| 20260506173404 | 49 | 6 | 3.0 | 7.0 | 0.00 | 0.00 | 0.00 | 69 | 1016.7 |
| 20260506172904 | 49 | 22 | 3.0 | 8.0 | 0.00 | 0.00 | 0.00 | 70 | 1016.7 |
| 20260506172404 | 49 | 80 | 2.0 | 8.0 | 0.00 | 0.00 | 0.00 | 68 | 1016.8 |
| 20260506171902 | 49 | 245 | 2.0 | 7.0 | 0.00 | 0.00 | 0.00 | 67 | 1016.8 |
| 20260506171402 | 49 | 274 | 3.0 | 7.0 | 0.00 | 0.00 | 0.00 | 66 | 1016.8 |
| 20260506170902 | 48 | 231 | 3.0 | 7.0 | 0.00 | 0.00 | 0.00 | 68 | 1016.8 |
| 20260506170402 | 48 | 30 | 2.0 | 6.0 | 0.00 | 0.00 | 0.00 | 66 | 1016.8 |
| 20260506165901 | 48 | 281 | 2.0 | 7.0 | 0.00 | 0.00 | 0.00 | 67 | 1016.8 |
| 20260506165402 | 49 | 78 | 2.0 | 7.0 | 0.00 | 0.00 | 0.00 | 67 | 1016.8 |
| 20260506164901 | 49 | 243 | 2.0 | 7.0 | 0.00 | 0.00 | 0.00 | 69 | 1016.8 |
| 20260506164401 | 49 | 27 | 2.0 | 7.0 | 0.00 | 0.00 | 0.00 | 69 | 1016.8 |
| 20260506163901 | 49 | 68 | 2.0 | 7.0 | 0.00 | 0.00 | 0.00 | 68 | 1016.7 |
| 20260506163356 | 49 | 179 | 2.0 | 7.0 | 0.00 | 0.00 | 0.00 | 69 | 1016.7 |
| 20260506162855 | 49 | 25 | 3.0 | 9.0 | 0.00 | 0.00 | 0.00 | 68 | 1016.7 |
| 20260506162356 | 49 | 101 | 3.0 | 9.0 | 0.00 | 0.00 | 0.00 | 70 | 1016.7 |
| 20260506161856 | 49 | 258 | 3.0 | 7.0 | 0.00 | 0.00 | 0.00 | 70 | 1016.7 |
| 20260506161353 | 49 | 70 | 3.0 | 9.0 | 0.00 | 0.00 | 0.00 | 71 | 1016.7 |
| 20260506160854 | 48 | 75 | 3.0 | 9.0 | 0.00 | 0.00 | 0.00 | 70 | 1016.7 |
| 20260506160353 | 48 | 37 | 3.0 | 8.0 | 0.00 | 0.00 | 0.00 | 67 | 1016.8 |
| 20260506155854 | 48 | 59 | 3.0 | 9.0 | 0.00 | 0.00 | 0.00 | 68 | 1016.8 |
| 20260506155353 | 48 | 224 | 3.0 | 9.0 | 0.00 | 0.00 | 0.00 | 68 | 1016.8 |
| 20260506154853 | 48 | 68 | 3.0 | 7.0 | 0.00 | 0.00 | 0.00 | 69 | 1016.8 |
| 20260506154354 | 49 | 134 | 3.0 | 7.0 | 0.00 | 0.00 | 0.00 | 68 | 1016.8 |
| 20260506153854 | 49 | 98 | 3.0 | 7.0 | 0.00 | 0.00 | 0.00 | 67 | 1016.8 |
| 20260506153348 | 49 | 296 | 3.0 | 7.0 | 0.00 | 0.00 | 0.00 | 68 | 1016.9 |
| 20260506152848 | 49 | 97 | 3.0 | 8.0 | 0.00 | 0.00 | 0.00 | 66 | 1016.9 |
| 20260506152348 | 49 | 18 | 3.0 | 10.0 | 0.00 | 0.00 | 0.00 | 68 | 1016.8 |
| 20260506151848 | 48 | 51 | 3.0 | 10.0 | 0.00 | 0.00 | 0.00 | 69 | 1016.8 |